SHF479 EGVO-EGVO

Flight info

Callsign SHF479
Flight time N/A
Altitude 1000
Route OPR BAGSHOT H3 H9 EGWU H10 H4 TVAA LFA1B
Aircraft H47/L-VGDW/C

Departure

Time 2026-04-29 13:13
Airport RAF Odiham (EGVO)

Arrival

Time N/A
Airport RAF Odiham (EGVO)
Time Latitude Longitude Altitude Speed Heading
2026-04-29 11:45 51.23761 -0.93811 337 ft 0 kts 266°
2026-04-29 11:53 51.23760 -0.93813 337 ft 1 kts 266°
2026-04-29 11:53 51.23755 -0.93852 341 ft 6 kts 216°
2026-04-29 11:53 51.23722 -0.93823 337 ft 8 kts 130°
2026-04-29 11:53 51.23678 -0.93750 339 ft 9 kts 164°
2026-04-29 11:54 51.23626 -0.93735 339 ft 7 kts 205°
2026-04-29 11:54 51.23603 -0.93784 340 ft 0 kts 239°
2026-04-29 11:54 51.23603 -0.93785 349 ft 1 kts 246°
2026-04-29 11:54 51.23598 -0.93808 356 ft 3 kts 51°
2026-04-29 11:55 51.23600 -0.93797 361 ft 1 kts 59°
2026-04-29 11:55 51.23576 -0.93786 360 ft 15 kts 107°
2026-04-29 11:55 51.23429 -0.93844 355 ft 17 kts 134°
2026-04-29 11:55 51.23399 -0.93666 386 ft 56 kts 95°
2026-04-29 11:56 51.23385 -0.92803 586 ft 83 kts 82°
2026-04-29 11:56 51.23886 -0.92191 602 ft 107 kts 26°
2026-04-29 11:56 51.24677 -0.92041 629 ft 113 kts 14°
2026-04-29 11:56 51.25423 -0.91932 629 ft 105 kts 14°
2026-04-29 11:57 51.26134 -0.91814 645 ft 102 kts
2026-04-29 11:57 51.26848 -0.91636 686 ft 106 kts 19°
2026-04-29 11:57 51.27578 -0.91394 725 ft 110 kts 22°
2026-04-29 11:57 51.28203 -0.90732 692 ft 106 kts 48°
2026-04-29 11:58 51.28578 -0.89685 695 ft 110 kts 66°
2026-04-29 11:58 51.28896 -0.88610 790 ft 108 kts 68°
2026-04-29 11:58 51.29196 -0.87532 843 ft 105 kts 67°
2026-04-29 11:58 51.29405 -0.86448 851 ft 100 kts 71°
2026-04-29 11:59 51.29524 -0.85730 851 ft 98 kts 72°
2026-04-29 11:59 51.29677 -0.84695 848 ft 94 kts 76°
2026-04-29 11:59 51.29858 -0.83389 849 ft 89 kts 79°
2026-04-29 11:59 51.29942 -0.82431 852 ft 85 kts 81°
2026-04-29 12:00 51.30015 -0.81490 850 ft 86 kts 82°
2026-04-29 12:00 51.30107 -0.80528 844 ft 90 kts 81°
2026-04-29 12:00 51.30217 -0.79520 849 ft 94 kts 76°
2026-04-29 12:00 51.30320 -0.78843 842 ft 91 kts 70°
2026-04-29 12:01 51.30616 -0.77961 850 ft 91 kts 57°
2026-04-29 12:01 51.31095 -0.76856 848 ft 90 kts 58°
2026-04-29 12:01 51.31317 -0.76305 853 ft 88 kts 59°
2026-04-29 12:01 51.31638 -0.75504 843 ft 84 kts 61°
2026-04-29 12:02 51.31970 -0.74738 845 ft 85 kts 60°
2026-04-29 12:02 51.32334 -0.74010 848 ft 82 kts 55°
2026-04-29 12:02 51.32705 -0.73346 849 ft 80 kts 53°
2026-04-29 12:02 51.33098 -0.72691 848 ft 84 kts 54°
2026-04-29 12:03 51.33501 -0.71992 849 ft 86 kts 53°
2026-04-29 12:03 51.33917 -0.71290 850 ft 87 kts 53°
2026-04-29 12:03 51.34345 -0.70594 853 ft 90 kts 50°
2026-04-29 12:03 51.34813 -0.69916 848 ft 91 kts 53°
2026-04-29 12:04 51.35174 -0.69059 847 ft 94 kts 61°
2026-04-29 12:04 51.35525 -0.68147 845 ft 99 kts 62°
2026-04-29 12:04 51.35836 -0.67184 844 ft 97 kts 73°
2026-04-29 12:04 51.35836 -0.66107 856 ft 94 kts 88°
2026-04-29 12:05 51.35954 -0.65127 845 ft 90 kts 70°
2026-04-29 12:05 51.36297 -0.64284 845 ft 92 kts 57°
2026-04-29 12:05 51.36652 -0.63472 851 ft 89 kts 65°
2026-04-29 12:05 51.36853 -0.62529 855 ft 92 kts 72°
2026-04-29 12:06 51.37106 -0.61566 849 ft 96 kts 68°
2026-04-29 12:06 51.37430 -0.60605 867 ft 99 kts 66°
2026-04-29 12:06 51.37774 -0.59666 873 ft 98 kts 62°
2026-04-29 12:06 51.38242 -0.58863 873 ft 96 kts 53°
2026-04-29 12:07 51.38619 -0.58031 880 ft 90 kts 65°
2026-04-29 12:07 51.38887 -0.57133 871 ft 90 kts 66°
2026-04-29 12:07 51.39245 -0.56288 872 ft 93 kts 62°
2026-04-29 12:07 51.39617 -0.55396 881 ft 99 kts 62°
2026-04-29 12:08 51.39970 -0.54460 871 ft 97 kts 68°
2026-04-29 12:08 51.40095 -0.53415 874 ft 99 kts 88°
2026-04-29 12:08 51.39997 -0.52332 880 ft 96 kts 97°
2026-04-29 12:08 51.39845 -0.51296 876 ft 95 kts 101°
2026-04-29 12:09 51.39557 -0.50325 879 ft 100 kts 111°
2026-04-29 12:09 51.39251 -0.49343 872 ft 97 kts 109°
2026-04-29 12:09 51.39015 -0.48342 879 ft 94 kts 105°
2026-04-29 12:09 51.38784 -0.47370 865 ft 92 kts 107°
2026-04-29 12:10 51.38530 -0.46436 866 ft 91 kts 108°
2026-04-29 12:10 51.38238 -0.45522 879 ft 91 kts 108°
2026-04-29 12:10 51.38171 -0.44599 875 ft 91 kts 86°
2026-04-29 12:10 51.38357 -0.43619 871 ft 94 kts 70°
2026-04-29 12:11 51.38739 -0.42766 880 ft 95 kts 56°
2026-04-29 12:11 51.39257 -0.42095 877 ft 95 kts 46°
2026-04-29 12:11 51.39775 -0.41442 877 ft 96 kts 49°
2026-04-29 12:11 51.40380 -0.40899 868 ft 110 kts 33°
2026-04-29 12:12 51.41214 -0.41030 869 ft 133 kts 356°
2026-04-29 12:12 51.42037 -0.41731 835 ft 128 kts 348°
2026-04-29 12:12 51.42832 -0.42099 800 ft 112 kts
2026-04-29 12:12 51.43581 -0.42284 773 ft 106 kts
2026-04-29 12:13 51.44266 -0.42647 805 ft 102 kts 354°
2026-04-29 12:13 51.44926 -0.42999 841 ft 96 kts
2026-04-29 12:13 51.45523 -0.43370 837 ft 92 kts 307°
2026-04-29 12:13 51.45702 -0.44366 840 ft 105 kts 281°
2026-04-29 12:14 51.45702 -0.45629 806 ft 119 kts 276°
2026-04-29 12:14 51.45690 -0.46959 826 ft 117 kts 274°
2026-04-29 12:14 51.45664 -0.48147 835 ft 95 kts 275°
2026-04-29 12:14 51.45640 -0.48970 804 ft 54 kts 278°
2026-04-29 12:15 51.45559 -0.49351 789 ft 21 kts 324°
2026-04-29 12:15 51.45553 -0.49424 839 ft 7 kts 12°
2026-04-29 12:15 51.45652 -0.49446 910 ft 34 kts
2026-04-29 12:15 51.46023 -0.49435 879 ft 71 kts
2026-04-29 12:16 51.46594 -0.49431 876 ft 91 kts
2026-04-29 12:16 51.47253 -0.49359 851 ft 97 kts 11°
2026-04-29 12:16 51.47922 -0.49314 834 ft 94 kts
2026-04-29 12:16 51.48475 -0.49157 769 ft 68 kts 70°
2026-04-29 12:17 51.48546 -0.48440 782 ft 73 kts 95°
2026-04-29 12:17 51.48495 -0.47603 808 ft 75 kts 93°
2026-04-29 12:17 51.48425 -0.46763 762 ft 76 kts 94°
2026-04-29 12:17 51.48397 -0.45917 773 ft 77 kts 74°
2026-04-29 12:18 51.48746 -0.45327 738 ft 80 kts 26°
2026-04-29 12:18 51.49349 -0.45192 639 ft 91 kts
2026-04-29 12:18 51.49958 -0.45097 620 ft 83 kts 27°
2026-04-29 12:18 51.50495 -0.44787 636 ft 83 kts 33°
2026-04-29 12:19 51.51024 -0.44418 695 ft 81 kts 30°
2026-04-29 12:19 51.51531 -0.44021 779 ft 82 kts 33°
2026-04-29 12:19 51.52040 -0.43644 865 ft 83 kts 31°
2026-04-29 12:19 51.52594 -0.43291 823 ft 89 kts 23°
2026-04-29 12:20 51.53229 -0.43231 765 ft 93 kts
2026-04-29 12:20 51.53864 -0.43356 649 ft 90 kts
2026-04-29 12:20 51.54425 -0.43485 508 ft 71 kts
2026-04-29 12:20 51.54871 -0.43353 334 ft 66 kts 42°
2026-04-29 12:21 51.55098 -0.42734 252 ft 53 kts 77°
2026-04-29 12:21 51.55205 -0.42261 215 ft 42 kts 80°
2026-04-29 12:21 51.55294 -0.41873 166 ft 32 kts 81°
2026-04-29 12:21 51.55270 -0.41597 168 ft 24 kts 118°
2026-04-29 12:22 51.55168 -0.41397 159 ft 21 kts 119°
2026-04-29 12:22 51.55098 -0.41305 141 ft 8 kts 118°
2026-04-29 12:22 51.55085 -0.41277 122 ft 1 kts 77°
2026-04-29 12:22 51.55085 -0.41271 114 ft 0 kts 77°
2026-04-29 12:23 51.55085 -0.41272 114 ft 0 kts 78°
2026-04-29 12:25 51.55081 -0.41258 127 ft 2 kts 14°
2026-04-29 12:26 51.55098 -0.41275 134 ft 9 kts 259°
2026-04-29 12:26 51.55188 -0.41409 159 ft 24 kts 309°
2026-04-29 12:26 51.55298 -0.41666 138 ft 23 kts 296°
2026-04-29 12:26 51.55349 -0.41612 167 ft 51 kts 75°
2026-04-29 12:27 51.55502 -0.40850 402 ft 80 kts 75°
2026-04-29 12:27 51.55329 -0.39994 526 ft 92 kts 118°
2026-04-29 12:27 51.54825 -0.39307 567 ft 91 kts 129°
2026-04-29 12:27 51.54516 -0.38524 650 ft 80 kts 115°
2026-04-29 12:28 51.54236 -0.37773 821 ft 77 kts 114°
2026-04-29 12:28 51.54022 -0.37009 826 ft 74 kts 106°
2026-04-29 12:28 51.53849 -0.36255 821 ft 70 kts 103°
2026-04-29 12:28 51.53714 -0.35517 843 ft 67 kts 102°
2026-04-29 12:29 51.53580 -0.34814 901 ft 65 kts 101°
2026-04-29 12:29 51.53458 -0.34068 910 ft 75 kts 99°
2026-04-29 12:29 51.53377 -0.33182 915 ft 85 kts 95°
2026-04-29 12:29 51.53282 -0.32213 915 ft 90 kts 97°
2026-04-29 12:30 51.53164 -0.31253 893 ft 86 kts 98°
2026-04-29 12:30 51.53074 -0.30307 851 ft 86 kts 97°
2026-04-29 12:30 51.52939 -0.29387 843 ft 82 kts 139°
2026-04-29 12:30 51.52442 -0.29094 909 ft 84 kts 172°
2026-04-29 12:31 51.51832 -0.29173 848 ft 94 kts 172°
2026-04-29 12:31 51.51150 -0.29305 824 ft 104 kts 173°
2026-04-29 12:31 51.50415 -0.29359 799 ft 107 kts 168°
2026-04-29 12:31 51.49677 -0.29269 801 ft 107 kts 159°
2026-04-29 12:32 51.48953 -0.28905 800 ft 106 kts 142°
2026-04-29 12:32 51.48446 -0.28112 735 ft 100 kts 131°
2026-04-29 12:32 51.47886 -0.27455 800 ft 103 kts 160°
2026-04-29 12:32 51.47264 -0.26926 741 ft 97 kts 127°
2026-04-29 12:33 51.47008 -0.26033 694 ft 89 kts 84°
2026-04-29 12:33 51.47304 -0.25219 718 ft 87 kts 44°
2026-04-29 12:33 51.47908 -0.24967 808 ft 99 kts 16°
2026-04-29 12:33 51.48578 -0.24763 847 ft 93 kts 43°
2026-04-29 12:34 51.48958 -0.24061 907 ft 82 kts 80°
2026-04-29 12:34 51.48915 -0.23175 899 ft 91 kts 118°
2026-04-29 12:34 51.48353 -0.22540 841 ft 102 kts 172°
2026-04-29 12:34 51.47631 -0.22543 793 ft 103 kts 165°
2026-04-29 12:35 51.46991 -0.22084 792 ft 98 kts 134°
2026-04-29 12:35 51.46577 -0.21261 853 ft 96 kts 114°
2026-04-29 12:35 51.46386 -0.20241 903 ft 96 kts 98°
2026-04-29 12:35 51.46374 -0.19168 976 ft 97 kts 86°
2026-04-29 12:36 51.46699 -0.18251 954 ft 100 kts 52°
2026-04-29 12:36 51.47391 -0.17842 863 ft 108 kts 26°
2026-04-29 12:36 51.48056 -0.17428 852 ft 94 kts 58°
2026-04-29 12:36 51.48274 -0.16491 861 ft 94 kts 80°
2026-04-29 12:37 51.48364 -0.15466 910 ft 91 kts 83°
2026-04-29 12:37 51.48393 -0.14438 879 ft 94 kts 89°
2026-04-29 12:37 51.48438 -0.13377 809 ft 94 kts 72°
2026-04-29 12:37 51.48832 -0.12613 782 ft 90 kts 36°
2026-04-29 12:38 51.49417 -0.12260 757 ft 88 kts 19°
2026-04-29 12:38 51.50059 -0.12153 730 ft 97 kts 12°
2026-04-29 12:38 51.50689 -0.11940 755 ft 88 kts 45°
2026-04-29 12:38 51.50942 -0.11111 762 ft 84 kts 86°
2026-04-29 12:39 51.50947 -0.10160 789 ft 87 kts 98°
2026-04-29 12:39 51.50850 -0.09168 832 ft 93 kts 105°
2026-04-29 12:39 51.50691 -0.08143 866 ft 94 kts 110°
2026-04-29 12:39 51.50431 -0.07179 868 ft 95 kts 118°
2026-04-29 12:40 51.50204 -0.06184 815 ft 92 kts 97°
2026-04-29 12:40 51.50388 -0.05271 820 ft 90 kts 59°
2026-04-29 12:40 51.50772 -0.04431 854 ft 93 kts 71°
2026-04-29 12:40 51.50768 -0.03460 847 ft 91 kts 121°
2026-04-29 12:41 51.50182 -0.02953 828 ft 105 kts 171°
2026-04-29 12:41 51.49447 -0.03042 771 ft 107 kts 174°
2026-04-29 12:41 51.48820 -0.02838 611 ft 87 kts 130°
2026-04-29 12:41 51.48465 -0.02151 496 ft 81 kts 108°
2026-04-29 12:42 51.48324 -0.01316 444 ft 59 kts 71°
2026-04-29 12:42 51.48524 -0.01251 522 ft 63 kts 298°
2026-04-29 12:42 51.48658 -0.02126 351 ft 90 kts 306°
2026-04-29 12:42 51.48991 -0.02701 254 ft 51 kts 342°
2026-04-29 12:43 51.49087 -0.02762 244 ft 19 kts 103°
2026-04-29 12:43 51.49018 -0.02655 196 ft 3 kts 341°
2026-04-29 12:43 51.49034 -0.02618 129 ft 4 kts 336°
2026-04-29 12:43 51.49049 -0.02580 92 ft 3 kts 340°
2026-04-29 12:44 51.49057 -0.02550 40 ft 1 kts 332°
2026-04-29 12:44 51.49063 -0.02545 26 ft 1 kts 332°
2026-04-29 12:44 51.49065 -0.02544 18 ft 0 kts 332°
2026-04-29 12:44 51.49065 -0.02545 16 ft 0 kts 331°
2026-04-29 12:50 51.49052 -0.02573 27 ft 7 kts 330°
2026-04-29 12:50 51.49046 -0.02641 102 ft 11 kts 330°
2026-04-29 12:51 51.49264 -0.02820 318 ft 62 kts 355°
2026-04-29 12:51 51.49810 -0.02941 477 ft 91 kts 358°
2026-04-29 12:51 51.50452 -0.02998 549 ft 96 kts 338°
2026-04-29 12:51 51.50939 -0.03701 863 ft 97 kts 268°
2026-04-29 12:52 51.50789 -0.04722 907 ft 101 kts 230°
2026-04-29 12:52 51.50293 -0.05648 808 ft 116 kts 252°
2026-04-29 12:52 51.50273 -0.06796 760 ft 108 kts 301°
2026-04-29 12:52 51.50669 -0.07950 709 ft 125 kts 288°
2026-04-29 12:53 51.50938 -0.09262 694 ft 126 kts 279°
2026-04-29 12:53 51.51016 -0.10637 729 ft 123 kts 264°
2026-04-29 12:53 51.50777 -0.11957 699 ft 124 kts 249°
2026-04-29 12:53 51.50643 -0.13223 705 ft 109 kts 308°
2026-04-29 12:54 51.51112 -0.14065 786 ft 102 kts 331°
2026-04-29 12:54 51.51679 -0.14735 833 ft 99 kts 330°
2026-04-29 12:54 51.52209 -0.15410 817 ft 98 kts 321°
2026-04-29 12:54 51.52664 -0.16214 768 ft 97 kts 318°
2026-04-29 12:55 51.53139 -0.16739 743 ft 71 kts 21°
2026-04-29 12:55 51.53395 -0.16210 689 ft 63 kts 96°
2026-04-29 12:55 51.53071 -0.15776 710 ft 71 kts 186°
2026-04-29 12:55 51.52731 -0.16236 671 ft 65 kts 289°
2026-04-29 12:56 51.52942 -0.16787 581 ft 57 kts
2026-04-29 12:56 51.53286 -0.16532 625 ft 56 kts 73°
2026-04-29 12:56 51.53240 -0.16058 501 ft 43 kts 172°
2026-04-29 12:56 51.53074 -0.16167 327 ft 22 kts 256°
2026-04-29 12:57 51.53060 -0.16335 216 ft 7 kts 214°
2026-04-29 12:57 51.53043 -0.16348 177 ft 2 kts 138°
2026-04-29 12:57 51.53045 -0.16348 129 ft 0 kts 139°
2026-04-29 12:57 51.53044 -0.16348 115 ft 0 kts 142°
2026-04-29 13:00 51.53037 -0.16348 136 ft 2 kts 129°
2026-04-29 13:00 51.52987 -0.16217 382 ft 43 kts 125°
2026-04-29 13:01 51.52723 -0.15681 541 ft 69 kts 129°
2026-04-29 13:01 51.52369 -0.15136 684 ft 75 kts 127°
2026-04-29 13:01 51.51953 -0.14525 760 ft 87 kts 127°
2026-04-29 13:01 51.51514 -0.13832 777 ft 90 kts 126°
2026-04-29 13:02 51.51053 -0.13118 800 ft 96 kts 128°
2026-04-29 13:02 51.50508 -0.12391 833 ft 107 kts 149°
2026-04-29 13:02 51.49777 -0.12218 917 ft 113 kts 189°
2026-04-29 13:02 51.49011 -0.12534 904 ft 117 kts 207°
2026-04-29 13:03 51.48421 -0.13454 880 ft 125 kts 261°
2026-04-29 13:03 51.48397 -0.14850 846 ft 129 kts 278°
2026-04-29 13:03 51.48341 -0.16284 862 ft 129 kts 262°
2026-04-29 13:03 51.47991 -0.17603 833 ft 131 kts 219°
2026-04-29 13:04 51.47211 -0.18133 772 ft 119 kts 186°
2026-04-29 13:04 51.46492 -0.18717 768 ft 117 kts 248°
2026-04-29 13:04 51.46361 -0.19964 724 ft 115 kts 296°
2026-04-29 13:04 51.46693 -0.21131 711 ft 111 kts 305°
2026-04-29 13:05 51.47177 -0.22105 742 ft 112 kts 295°
2026-04-29 13:05 51.47209 -0.23204 849 ft 107 kts 226°
2026-04-29 13:05 51.46739 -0.24202 781 ft 115 kts 213°
2026-04-29 13:05 51.46059 -0.24871 836 ft 117 kts 199°
2026-04-29 13:06 51.45298 -0.25261 864 ft 112 kts 180°
2026-04-29 13:06 51.44546 -0.25301 890 ft 107 kts 168°
2026-04-29 13:06 51.43776 -0.25299 884 ft 114 kts 167°
2026-04-29 13:06 51.43012 -0.25035 889 ft 113 kts 150°
2026-04-29 13:07 51.42260 -0.24660 889 ft 116 kts 158°
2026-04-29 13:07 51.41468 -0.24388 891 ft 116 kts 156°
2026-04-29 13:07 51.40694 -0.24009 887 ft 118 kts 154°
2026-04-29 13:07 51.39881 -0.23723 888 ft 121 kts 160°
2026-04-29 13:08 51.39028 -0.23582 889 ft 125 kts 167°
2026-04-29 13:08 51.38167 -0.23522 891 ft 124 kts 167°
2026-04-29 13:08 51.37340 -0.23285 916 ft 119 kts 154°
2026-04-29 13:08 51.36552 -0.22928 904 ft 119 kts 154°
2026-04-29 13:09 51.35735 -0.22628 907 ft 122 kts 158°
2026-04-29 13:09 51.34886 -0.22408 906 ft 127 kts 163°
2026-04-29 13:09 51.34022 -0.22083 908 ft 127 kts 156°
2026-04-29 13:09 51.33189 -0.21692 910 ft 124 kts 155°
2026-04-29 13:10 51.32342 -0.21596 966 ft 124 kts 175°
2026-04-29 13:10 51.31566 -0.22139 1103 ft 130 kts 212°
2026-04-29 13:10 51.31023 -0.23352 1222 ft 140 kts 239°
2026-04-29 13:10 51.30509 -0.24738 1342 ft 149 kts 239°
2026-04-29 13:11 51.29996 -0.26178 1427 ft 149 kts 239°
2026-04-29 13:11 51.29480 -0.27624 1451 ft 152 kts 240°
2026-04-29 13:11 51.28931 -0.29074 1450 ft 151 kts 238°
2026-04-29 13:11 51.28364 -0.30364 1445 ft 148 kts 232°
2026-04-29 13:12 51.27701 -0.31583 1445 ft 147 kts 224°
2026-04-29 13:12 51.27045 -0.32840 1449 ft 145 kts 230°
2026-04-29 13:12 51.26457 -0.34152 1447 ft 148 kts 233°
2026-04-29 13:12 51.25866 -0.35529 1442 ft 151 kts 233°
2026-04-29 13:13 51.25251 -0.36852 1448 ft 148 kts 229°
2026-04-29 13:13 51.24602 -0.38136 1446 ft 149 kts 230°
2026-04-29 13:13 51.24017 -0.39511 1448 ft 150 kts 237°
2026-04-29 13:13 51.23466 -0.40942 1445 ft 153 kts 238°
2026-04-29 13:14 51.22934 -0.42420 1445 ft 154 kts 240°
2026-04-29 13:14 51.22439 -0.43921 1443 ft 150 kts 242°
2026-04-29 13:14 51.22007 -0.45404 1443 ft 147 kts 246°
2026-04-29 13:14 51.21631 -0.46923 1445 ft 149 kts 251°
2026-04-29 13:15 51.21325 -0.48509 1446 ft 151 kts 256°
2026-04-29 13:15 51.21015 -0.50121 1445 ft 153 kts 254°
2026-04-29 13:15 51.20588 -0.51684 1443 ft 154 kts 242°
2026-04-29 13:15 51.19978 -0.53060 1448 ft 149 kts 227°
2026-04-29 13:16 51.19280 -0.54273 1446 ft 148 kts 223°
2026-04-29 13:16 51.18554 -0.55463 1442 ft 151 kts 221°
2026-04-29 13:16 51.17805 -0.56656 1441 ft 154 kts 219°
2026-04-29 13:16 51.17045 -0.57864 1441 ft 155 kts 220°
2026-04-29 13:17 51.16279 -0.59068 1445 ft 154 kts 220°
2026-04-29 13:17 51.15472 -0.60113 1447 ft 146 kts 208°
2026-04-29 13:17 51.14584 -0.60865 1444 ft 144 kts 200°
2026-04-29 13:17 51.13702 -0.61633 1438 ft 147 kts 200°
2026-04-29 13:18 51.12807 -0.62434 1445 ft 148 kts 200°
2026-04-29 13:18 51.11920 -0.63259 1446 ft 148 kts 202°
2026-04-29 13:18 51.11021 -0.64078 1440 ft 149 kts 199°
2026-04-29 13:18 51.10120 -0.64827 1439 ft 145 kts 200°
2026-04-29 13:19 51.09233 -0.65587 1439 ft 145 kts 201°
2026-04-29 13:19 51.08361 -0.66386 1434 ft 145 kts 202°
2026-04-29 13:19 51.07529 -0.67298 1437 ft 147 kts 211°
2026-04-29 13:19 51.06730 -0.68372 1437 ft 154 kts 214°
2026-04-29 13:20 51.05922 -0.69491 1428 ft 153 kts 214°
2026-04-29 13:20 51.05144 -0.70569 1435 ft 145 kts 216°
2026-04-29 13:20 51.04394 -0.71625 1429 ft 146 kts 216°
2026-04-29 13:20 51.03637 -0.72747 1426 ft 150 kts 217°
2026-04-29 13:21 51.02982 -0.73640 1428 ft 145 kts 213°
2026-04-29 13:21 51.02218 -0.74668 1428 ft 145 kts 213°
2026-04-29 13:21 51.01458 -0.75709 1434 ft 142 kts 214°
2026-04-29 13:22 51.00752 -0.76645 1432 ft 140 kts 212°
2026-04-29 13:22 50.99979 -0.77650 1423 ft 148 kts 213°
2026-04-29 13:22 50.99167 -0.78665 1424 ft 148 kts 211°
2026-04-29 13:22 50.98334 -0.79583 1425 ft 143 kts 206°
2026-04-29 13:23 50.97505 -0.80418 1423 ft 138 kts 204°
2026-04-29 13:23 50.96684 -0.81215 1421 ft 140 kts 206°
2026-04-29 13:23 50.95834 -0.82016 1418 ft 142 kts 204°
2026-04-29 13:23 50.95002 -0.82762 1413 ft 140 kts 204°
2026-04-29 13:24 50.94167 -0.83525 1419 ft 136 kts 203°
2026-04-29 13:24 50.93392 -0.84305 1418 ft 129 kts 205°
2026-04-29 13:24 50.92642 -0.85146 1414 ft 135 kts 210°
2026-04-29 13:24 50.91881 -0.86016 1408 ft 136 kts 208°
2026-04-29 13:25 50.91104 -0.86901 1412 ft 137 kts 210°
2026-04-29 13:25 50.89557 -0.88749 1409 ft 142 kts 213°
2026-04-29 13:25 50.88780 -0.89733 1406 ft 145 kts 211°
2026-04-29 13:26 50.87960 -0.90701 1406 ft 148 kts 210°
2026-04-29 13:26 50.87135 -0.91647 1408 ft 145 kts 208°
2026-04-29 13:26 50.86315 -0.92530 1408 ft 140 kts 208°
2026-04-29 13:26 50.85526 -0.93381 1402 ft 139 kts 209°
2026-04-29 13:27 50.84728 -0.94270 1402 ft 139 kts 210°
2026-04-29 13:27 50.83924 -0.95181 1398 ft 145 kts 211°
2026-04-29 13:27 50.83120 -0.96144 1407 ft 145 kts 212°
2026-04-29 13:27 50.82337 -0.97133 1403 ft 143 kts 211°
2026-04-29 13:28 50.81585 -0.98116 1400 ft 143 kts 214°
2026-04-29 13:28 50.80858 -0.99199 1402 ft 144 kts 218°
2026-04-29 13:28 50.80135 -1.00299 1402 ft 144 kts 220°
2026-04-29 13:28 50.79425 -1.01399 1403 ft 143 kts 221°
2026-04-29 13:29 50.78728 -1.02540 1395 ft 147 kts 224°
2026-04-29 13:29 50.78162 -1.03914 1397 ft 153 kts 245°
2026-04-29 13:29 50.77772 -1.05486 1409 ft 153 kts 243°
2026-04-29 13:29 50.77375 -1.07020 1320 ft 152 kts 257°
2026-04-29 13:30 50.77297 -1.08661 1073 ft 147 kts 281°
2026-04-29 13:30 50.77686 -1.10059 903 ft 135 kts 322°
2026-04-29 13:30 50.78443 -1.10782 773 ft 123 kts 354°
2026-04-29 13:30 50.79229 -1.11125 684 ft 112 kts
2026-04-29 13:31 50.79945 -1.11467 743 ft 104 kts 358°
2026-04-29 13:31 50.80613 -1.11865 735 ft 102 kts 359°
2026-04-29 13:31 50.81293 -1.12351 661 ft 114 kts 343°
2026-04-29 13:31 50.81977 -1.13056 572 ft 119 kts 337°
2026-04-29 13:32 50.82646 -1.13713 492 ft 108 kts 338°
2026-04-29 13:32 50.83245 -1.14387 484 ft 104 kts 335°
2026-04-29 13:32 50.83785 -1.15097 453 ft 97 kts 309°
2026-04-29 13:32 50.84085 -1.15966 421 ft 81 kts 259°
2026-04-29 13:33 50.83938 -1.16675 283 ft 55 kts 198°
2026-04-29 13:33 50.83685 -1.16859 161 ft 33 kts 185°
2026-04-29 13:33 50.83554 -1.16905 97 ft 5 kts 186°
2026-04-29 13:33 50.83529 -1.16909 52 ft 2 kts 189°
2026-04-29 13:34 50.83514 -1.16905 40 ft 0 kts 312°
2026-04-29 13:34 50.83517 -1.16906 31 ft 0 kts 307°
2026-04-29 13:34 50.83517 -1.16905 28 ft 0 kts 307°